RADUGA-1M 2

Last updated on March 8, 2021, 6:42 a.m. UTC

1 36358U 10002A   21066.86679473 -.00000203  00000-0  00000-0 0  9999
2 36358   0.0619 248.9531 0002138 161.9060 151.9452  1.00271860 30771
UTC
Height (km)
Latitude
Longitude
Inclination
Orbital Period
UTC large
Height (km)
Speed (km/s)
/
Latitude / Longitude
Inclination (degrees)
Orbital Period (minutes)
Azimuth
Elevation
Range (km)
Doppler Factor
iOS Compass Heading
iOS Angle

Next 30 passes for location: Hong Kong

Rise time Rise Azimuth (degrees) Set time Set Azimuth (degrees) Duration Max altitude (degrees)

No matching passes for this satellites